GSAT0213 (GALILEO 17) (41861 NORAD) Tracking and Keplerian Element Data

This shows tracking and keplerian element data for the satellite.

Feedback or suggestion? Click here.




ElementValue
Catalog41861
NameGSAT0213 (GALILEO 17)
Epoch Orbit1243
Epoch Day320.11669412
Epoch Year2018
RAAN177.9506
Inclination54.5854
Eccentricity0.0001642
Argument of Perigee272.1445
Mean Anonmoly87.927
Mean Motion1.70473457
Decay Rate5.6E-07
L11 41861U 16069C 18320.11669412 .00000056 00000-0 00000-0 0 9997
L22 41861 54.5854 177.9506 0001642 272.1445 87.9270 1.70473457 12437

Live tracking and technical data element details for GSAT0213 (GALILEO 17) (NORAD 41861). GSAT0213 (GALILEO 17) can be tracked NOW for your location showing map with azimuth and elevation plus other details from your city location.

Track the satellite on the map from your city or location and see movement details for azimuth, elevation, latitude, longitude, range, height, and movement on the map or in text.







IsCatalogInMostPopularTable: catalog: 41861, numindb: 110
Update: records affected: 1



GetName: 41861 GSAT0213 (GALILEO 17)

Hit Count: updated at: Mon, 19 Nov 2018 14:13:52 GMT